Location: Miles
(41.4492°N, 81.6087°W)
Time: 23:08:21
(UTC+00:00)

Explorer 11/Cluster Stage 4 - Pass Details

Date: 19 September 2024
Orbit: 464 x 1208 km, 28.8° (Epoch: 06 October)

Event Time Altitude Azimuth Distance (km) Brightness Sun altitude
Exits shadow 09:13:54 - 174° (S) 2,355 8.9 -22.2°
Reaches altitude 10° 09:14:40 10° 166° (SSE) 2,306 8.9 -22.1°
Maximum altitude 09:15:56 11° 153° (SSE) 2,314 9.0 -21.9°
Drops below altitude 10° 09:17:16 10° 139° (SE) 2,431 9.3 -21.6°
Sets 09:22:28 0° 105° (ESE) 3,612 10.8 -20.7°
